Regional Weather Roundup
Issued by NWS

Home | Current Version | Previous Version | Text Only | Print | Product List | Glossary Off
Versions: 1 2 3 4 5 6 7 8 9 10 11 12 13 14 15 16 17 18 19 20 21 22 23 24 25 26 27 28 29 30 31 32 33 34 35 36 37 38 39 40 41 42 43 44 45 46 47 48 49 50

000
ASUS43 KMKX 201100
RWRWI

WISCONSIN REGIONAL WEATHER ROUNDUP
NATIONAL WEATHER SERVICE MILWAUKEE/SULLIVAN WI
600 AM CDT SAT SEP 20 2014

NOTE: "FAIR" INDICATES FEW OR NO CLOUDS BELOW 12,000 FEET WITH NO
SIGNIFICANT WEATHER AND/OR OBSTRUCTIONS TO VISIBILITY.

WIZ001-002-006>008-014>016-023>028-201200-
NORTHWEST WISCONSIN

CITY           SKY/WX    TMP DP  RH WIND       PRES   REMARKS
SUPERIOR ARPT  CLOUDY    62  62  99 W10       29.60R
ASHLAND        MOCLDY    66  63  90 SW9       29.59R
HAYWARD        PTCLDY    65  64  97 SW8       29.65R
SIREN          PTCLDY    64  62  91 W7        29.67R
RICE LAKE      MOCLDY    67  64  89 SW9       29.69R
LADYSMITH      CLOUDY    67  65  92 S8        29.69R
EAU CLAIRE     NOT AVBL
MENOMONIE      PTSUNNY   68  63  85 SW12      29.69S
NEW RICHMOND   MOCLDY    66  65  96 SW12      29.70S
OSCEOLA        MOCLDY    67  67 100 SW8       29.72R
$$

WIZ003>005-009-010-017-018-201200-
NORTH CENTRAL WISCONSIN

CITY           SKY/WX    TMP DP  RH WIND       PRES   REMARKS
WOODRUFF       CLOUDY    66  63  91 SW10G16   29.66
RHINELANDER    CLOUDY    64  61  90 SW9G20    29.69F
EAGLE RIVER    CLOUDY    64  62  94 SW10G16   29.65F
LAND O LAKES   CLOUDY    64  62  93 SW8       29.65F FOG
PHILLIPS       CLOUDY    65  64  95 SW10      29.66S
TOMAHAWK       CLOUDY    65  62  90 SW3       29.69F
MEDFORD        CLOUDY    64  62  95 SW12      29.70F
MERRILL        CLOUDY    65  64  94 SW10      29.70F
$$

WIZ029-030-035-036-043>047-201200-
CENTRAL WISCONSIN

CITY           SKY/WX    TMP DP  RH WIND       PRES   REMARKS
WAUSAU         CLOUDY    64  62  93 S10       29.69F
MOSINEE        CLOUDY    64  63  94 S8        29.72F
MARSHFIELD     CLOUDY    64  62  93 SW7       29.72F
STEVENS POINT  DRIZZLE   62  61  95 S12       29.74F
WAUPACA        LGT RAIN  65  64  94 W10       29.76R
WAUTOMA        NOT AVBL
WISC RAPIDS    CLOUDY    64  62  93 S5        29.74F
CAMP DOUGLAS   NOT AVBL
$$

WIZ011>013-019>022-031-037>040-048>050-201200-
NORTHEAST WISCONSIN

CITY           SKY/WX    TMP DP  RH WIND       PRES   REMARKS
ANTIGO         CLOUDY    63  61  95 SW18      29.72S
STURGEON BAY   CLOUDY    63  59  88 SW16G22   29.71F
GREEN BAY      LGT RAIN  64  62  93 W10       29.73F
MANITOWOC      NOT AVBL
APPLETON       LGT RAIN  63  61  94 S13       29.70F
CLINTONVILLE   LGT RAIN  63  61  94 SW6       29.74R
OSHKOSH        CLOUDY    64  61  90 S12       29.72F
$$

WIZ032>034-041-042-053>061-201200-
SOUTHWEST WISCONSIN

CITY           SKY/WX    TMP DP  RH WIND       PRES   REMARKS
LA CROSSE      CLOUDY    66  62  87 SE7       29.74S
SPARTA         CLOUDY    64  61  90 CALM      29.76R
VIROQUA        FAIR      63  63 100 SW3       29.78S
BOSCOBEL       CLOUDY    67  63  87 NW14      29.76F
PRAIRIE DU CHI LGT RAIN  64  63  95 S15G28    29.71F
PLATTEVILLE    FAIR      63  62  94 S12       29.85F
$$

WIZ056-057-062-063-064-067-068-201200-
SOUTH CENTRAL WISCONSIN

CITY           SKY/WX    TMP DP  RH WIND       PRES   REMARKS
BARABOO/DELLS  LGT RAIN  64  60  90 CALM      29.76F
LONE ROCK      NOT AVBL
WATERTOWN      CLOUDY    63  60  91 S13       29.81F
MADISON        CLOUDY    66  61  84 S10       29.80F
MIDDLETON      FAIR      65  63  90 SW14      29.80F
MONROE         CLOUDY    63  61  94 SW12      29.86F
JANESVILLE     MOCLDY    63  59  88 S9        29.86F
$$

WIZ051-052-058>065-066-070>072-201200-
SOUTHEAST WISCONSIN

CITY           SKY/WX    TMP DP  RH WIND       PRES   REMARKS
MILWAUKEE      CLOUDY    64  56  75 SW13      29.83F
WAUKESHA       CLEAR     61  57  88 SW8       29.84F
MILWAUKEE/TIMM LGT RAIN  64  55  72 SW10      29.83F
RACINE         CLOUDY    64  55  72 SW9G20    29.87F
BURLINGTON     CLOUDY    60  55  83 SW12      29.87F
KENOSHA        CLOUDY    64  56  75 SW20G25   29.87F
FOND DU LAC    CLOUDY    64  59  83 SW14      29.75F
SHEBOYGAN      CLOUDY    63  59  87 SW15      29.76F
WEST BEND      CLOUDY    63  55  77 SW10G16   29.82F
JUNEAU         CLOUDY    62  59  91 S13       29.79F
$$

LSZ147-162-201200-
LAKE SUPERIOR

STATION/POSITION TIME  TEMP    WIND        PRES    WAVE
                       AIR SEA DIR/SP/G            HT/PER
                 (UTC) (F)     (DEG/KT/KT) (MB)    (FT/S)
W MID LAKE BUOY  0950   53 48  220/  2/  4 1000.4S   1
DEVILS ISLAND    1000   58     230/  8/  8 1000.7R
PORT WING        1000   61     250/ 11/ 13 1002.0R
SAXON HARBOR     1040   67      CALM  /  4 1001.7R
$$

LMZ867-665-643>646-201200-
LAKE MICHIGAN

STATION/POSITION TIME  TEMP    WIND        PRES    WAVE
                       AIR SEA DIR/SP/G            HT/PER
                 (UTC) (F)     (DEG/KT/KT) (MB)    (FT/S)
N MID LAKE BUOY  0950   59 58  210/ 25/ 31 1005.5R   8/ 8
NORTHPORT PIER   1000   58     160/  5/  9 1005.8F
KEWAUNEE LAKESHO 1000   63     230/  8/ 13 1006.1F
SHEBOYGAN LAKESH 1000   65 55  230/ 17/ 22 1008.9F
PORT WASHINGTON  1020   67     250/ 13/ 24 1009.8F
ATWATER BUOY     0900   66     210/ 16/ 23 1011.3F
MILWAUKEE LAKESH 1000   67     250/ 17/ 22   N/A
S MID LAKE BUOY  0950   65 64  210/ 21/ 25 1011.8R   4/ 6
KENOSHA   LAKESH 1000   67     240/ 10/ 16 1012.2R
$$

TC  - TEMPERATURE IN CELSIUS
VSB - VISIBILITY IN STATUTE MILES
WCI - WIND CHILL INDEX
HX  - HEAT INDEX




USA.gov is the U.S. government's official web portal to all federal, state and local government web resources and services.